sat.trackr.live / text

‹ back to catalog

STARLINK-5246

NORAD 54198 · 2022-141AT

PAYLOAD ACTIVE UNKNOWN

§ Identity

Operator
Country
US
Launch date
2022-10-28
Launch site
AFWTR
Launch vehicle
Mass (kg)
RCS (m²)

Purposes: comms

External: N2YO · Heavens-Above · Gunter

§ Orbital elements

Epoch: 2026-09-20T04:02:55.878720Z

Period
93.79 min
Inclination
53.1601°
Eccentricity
0.0001417
Mean motion
15.35401401 rev/d
Perigee alt
458.8 km
Apogee alt
460.7 km
Semi-major
6,837.9 km
B*
3.6383e-5
RAAN
189.4635°
Arg perigee
83.8293°
Mean anomaly
276.2871°
Rev number
21,551

§ Raw data

STARLINK-52461 54198U 22141AT  26263.16870230  .00000889  00000+0  36383-4 0  99942 54198  53.1601 189.4635 0001417  83.8293 276.2871 15.35401401215518

JSON: /api/v1/satellites/54198 · /tle

For live sub-satellite position, see the globe view (requires WebGL).

§ Visibility from observer

Set your observer location to see the next 7 days of passes ≥ 10°. The values pass through the URL so the page stays shareable.

No JS? Fill the form by hand. The geolocation button needs JavaScript.